DECAYED

STARLINK-1418, 45708 (Decayed)

Orbit data source: Space-Track

STARLINK-1418, 45708 was a payload satellite owned by SpaceX/Seattle (US) in LEO that was launched on Thu, 04 Jun 2020 UTC via an FALCON 9 launch vehicle from the Air Force Eastern Test Range (AFETR). Payload-class satellites include a variety of spacecraft equipped with specific instruments for various scientific and technological missions. These include communications satellites like Starlink; space stations such as the ISS; scientific satellites like the Hubble; Earth observation satellites from companies like Planet Labs, Umbra, and HawkEye 360; GPS; miniature CubeSats for education and research; and military/defense satellites.

Not visible in the next 10 days
Identifier
45708, 2020-035BD
Orbit
Decayed
Country
Flag of USUS
Related business
Manufacturer
SpaceX/Seattle
Mission
Decayed Commercial Communications
Bus & Motor
STARLINK, Unknown motor
Mass
260 kg wet, ~248 kg dry
Launch date (UTC)
2020-06-04 (5 years ago)
Launch vehicle
FALCON 9
Launch site
Air Force Eastern Test Range (AFETR)
Object type
Payload
Rocket body
Debris
Shape & HBR
Box + 1 Pan, 4.4 m
Radar Cross Section
13.562 m², Large (>1 m²)

Expand to show TLE details & history
Last TLE update: 5 months ago

TLE from 5 months ago
0 STARLINK-1418
1 45708U 20035BD  25102.01400528  .36690748  12218-4  35524-2 0  9996
2 45708  53.0347  29.5243 0004772 184.8469 279.4778 16.37580108269531
Epoch: 2025-04-12T00:20Z
TLE epoch observation values (Epoch: 2025-04-12T00:20:10.056Z)
Latitude
50.90212°
Longitude
-63.02857°
Altitude
177.699 km
Speed
7.806 km/s
True Right ascension
09h 29m 54s
True Declination
50° 43' 08"
Sunlit
Object was in daylight at epoch
Visualization orbit readout
Latitude
Unknown
Longitude
Unknown
Altitude
Unknown
Speed
Unknown
Apparent Right ascension
Unknown
Apparent Declination
Unknown
Sunlit
N/A
Visualization observer readout
Local Sidereal Time
16:38:00
Azimuth
Unknown
Elevation
Unknown
Doppler factor
Unknown
Orbital elements
Apogee altitude
175.663 km
Perigee altitude
169.411 km
Semi-major axis
6,550.674 km
Eccentricity
0.00048
Inclination
53.0347°
RAAN
29.5243°
Arg. of periapsis
184.8469°
True anomaly
279.42386°
Mean anomaly
279.4778°
Eccentric anomaly
279.45083°
Mean motion
4.09368 °/min
Orbital period
87.94 mins
BSTAR
0.0035524
Loading maneuver chart data...
Computing Atmospheric mass density...

Documentation

Showing up to 5 results
|